Simultaneous Nadir Overpasses (SNOs) Predictions

Prediction of SNOs between GOES-14 and NOAA-20 Satellite Orbit:

Table of predicted SNOs for the next 14.0 days since TLE Epoch: 7/13/2018
Index Date Time (GOES-14) GOES-14 Lat,Lon NOAA-20 Lat,Lon Distance(km) Time Diff (sec)
1 07/13/2018 20:38:59 0.20,-104.49 -0.76,-108.87 499.25 80
2 07/14/2018 20:22:55 0.19,-104.49 0.24,-104.34 17.81 80
3 07/17/2018 08:23:19 -0.20,-104.35 -0.06,-105.08 82.78 80
4 07/18/2018 08:07:14 -0.19,-104.35 -1.06,-100.55 434.50 80
5 07/19/2018 20:26:31 0.22,-104.52 -0.11,-105.86 152.95 80
6 07/20/2018 20:10:27 0.20,-104.53 0.89,-101.32 364.48 80
7 07/22/2018 08:29:35 -0.24,-104.39 0.28,-106.60 252.68 80
8 07/23/2018 08:13:31 -0.22,-104.39 -0.72,-102.07 264.57 80
9 07/24/2018 20:32:49 0.26,-104.56 -0.39,-107.39 323.16 80
10 07/25/2018 20:16:45 0.25,-104.57 0.61,-102.86 194.25 80
11 07/27/2018 08:35:53 -0.28,-104.43 0.56,-108.13 422.44 80




NCC Satellite Simultaneous Nadir Overpasses (SNOs) Prediction Service
